DEOGG EDFM-EDFE

Flight info

Callsign DEOGG
Flight time 0h 19m
Altitude 13000
Route UMDAS3W UMDAS Y127 TUDGA Z738 UBENO
Aircraft PC12/L-SDFGRWY/S

Departure

Time 2026-05-08 07:39
Airport Mannheim-City Airport (EDFM)

Arrival

Time 2026-05-08 07:58
Airport Frankfurt-Egelsbach Airport (EDFE)
Time Latitude Longitude Altitude Speed Heading
2026-05-08 07:24 49.47561 8.52083 313 ft 0 kts 184°
2026-05-08 07:36 49.47550 8.52082 313 ft 10 kts 184°
2026-05-08 07:36 49.47418 8.52060 313 ft 26 kts 188°
2026-05-08 07:37 49.47205 8.51995 313 ft 35 kts 194°
2026-05-08 07:37 49.47175 8.51984 313 ft 0 kts 193°
2026-05-08 07:37 49.47496 8.52000 313 ft 0 kts
2026-05-08 07:38 49.47514 8.52057 314 ft 20 kts 70°
2026-05-08 07:38 49.47518 8.52173 313 ft 10 kts 176°
2026-05-08 07:38 49.47385 8.52158 313 ft 27 kts 180°
2026-05-08 07:38 49.47279 8.52152 313 ft 8 kts 178°
2026-05-08 07:39 49.47248 8.52081 313 ft 19 kts 274°
2026-05-08 07:39 49.47264 8.51586 312 ft 81 kts 273°
2026-05-08 07:39 49.47288 8.50492 495 ft 113 kts 269°
2026-05-08 07:39 49.47280 8.49223 1047 ft 124 kts 264°
2026-05-08 07:40 49.47174 8.47803 1611 ft 136 kts 258°
2026-05-08 07:40 49.46913 8.46398 2312 ft 138 kts 252°
2026-05-08 07:40 49.46652 8.44957 3120 ft 140 kts 254°
2026-05-08 07:40 49.46407 8.43476 3768 ft 147 kts 255°
2026-05-08 07:41 49.46161 8.41944 4434 ft 148 kts 255°
2026-05-08 07:41 49.45901 8.40407 5080 ft 149 kts 250°
2026-05-08 07:41 49.45164 8.39369 5704 ft 150 kts 197°
2026-05-08 07:41 49.44140 8.39503 6317 ft 154 kts 151°
2026-05-08 07:42 49.43411 8.40707 6914 ft 157 kts 125°
2026-05-08 07:42 49.42794 8.42098 7498 ft 159 kts 125°
2026-05-08 07:42 49.42159 8.43494 8065 ft 160 kts 126°
2026-05-08 07:42 49.41513 8.44904 8623 ft 162 kts 126°
2026-05-08 07:43 49.40867 8.46311 9153 ft 164 kts 126°
2026-05-08 07:43 49.40218 8.47763 9661 ft 166 kts 123°
2026-05-08 07:43 49.39544 8.49207 10153 ft 167 kts 128°
2026-05-08 07:43 49.38855 8.50656 10632 ft 169 kts 126°
2026-05-08 07:44 49.38177 8.52138 11080 ft 170 kts 126°
2026-05-08 07:44 49.37495 8.53631 11511 ft 172 kts 126°
2026-05-08 07:44 49.36803 8.55136 11914 ft 173 kts 126°
2026-05-08 07:44 49.36243 8.56764 12262 ft 177 kts 97°
2026-05-08 07:45 49.36653 8.58469 12627 ft 178 kts 41°
2026-05-08 07:45 49.37802 8.58940 12970 ft 177 kts 346°
2026-05-08 07:45 49.38895 8.58077 13358 ft 177 kts 329°
2026-05-08 07:45 49.40040 8.57306 13495 ft 189 kts 345°
2026-05-08 07:46 49.41412 8.57009 13194 ft 209 kts 355°
2026-05-08 07:46 49.42874 8.56892 13005 ft 209 kts 356°
2026-05-08 07:46 49.44304 8.56740 13013 ft 204 kts 354°
2026-05-08 07:46 49.45718 8.56556 13011 ft 203 kts 354°
2026-05-08 07:47 49.47131 8.56375 13011 ft 207 kts 354°
2026-05-08 07:47 49.48604 8.56189 13013 ft 216 kts 355°
2026-05-08 07:47 49.50114 8.56002 13012 ft 218 kts 355°
2026-05-08 07:47 49.51633 8.55812 13011 ft 219 kts 354°
2026-05-08 07:48 49.53153 8.55620 13012 ft 219 kts 355°
2026-05-08 07:48 49.54682 8.55431 13012 ft 220 kts 355°
2026-05-08 07:48 49.56204 8.55240 13010 ft 220 kts 355°
2026-05-08 07:48 49.57747 8.55044 13011 ft 229 kts 355°
2026-05-08 07:49 49.59336 8.54845 13010 ft 234 kts 355°
2026-05-08 07:49 49.60967 8.54662 13012 ft 236 kts 358°
2026-05-08 07:49 49.62605 8.54823 13012 ft 236 kts
2026-05-08 07:49 49.64235 8.55184 13016 ft 237 kts
2026-05-08 07:50 49.65871 8.55574 12885 ft 242 kts
2026-05-08 07:50 49.67458 8.55957 12506 ft 220 kts
2026-05-08 07:50 49.68943 8.56317 12110 ft 215 kts
2026-05-08 07:50 49.70423 8.56676 11725 ft 215 kts
2026-05-08 07:51 49.71902 8.57027 11346 ft 215 kts
2026-05-08 07:51 49.73379 8.57385 10971 ft 215 kts
2026-05-08 07:51 49.74867 8.57751 10596 ft 215 kts
2026-05-08 07:51 49.76346 8.58112 10226 ft 215 kts
2026-05-08 07:52 49.77827 8.58473 9853 ft 215 kts
2026-05-08 07:52 49.79309 8.58834 9480 ft 215 kts
2026-05-08 07:52 49.80786 8.59194 9108 ft 214 kts
2026-05-08 07:52 49.82247 8.59549 8634 ft 204 kts
2026-05-08 07:53 49.83551 8.59870 8102 ft 182 kts
2026-05-08 07:53 49.84741 8.60122 7548 ft 167 kts
2026-05-08 07:53 49.85885 8.60427 7002 ft 167 kts 13°
2026-05-08 07:53 49.86979 8.61048 6469 ft 168 kts 22°
2026-05-08 07:54 49.88054 8.61756 5947 ft 168 kts 22°
2026-05-08 07:54 49.89133 8.62465 5427 ft 169 kts 22°
2026-05-08 07:54 49.90196 8.63159 4904 ft 165 kts 22°
2026-05-08 07:54 49.91258 8.63859 4410 ft 165 kts 23°
2026-05-08 07:55 49.92304 8.64576 4013 ft 161 kts 24°
2026-05-08 07:55 49.93279 8.65251 3619 ft 152 kts 23°
2026-05-08 07:55 49.94352 8.65911 3423 ft 186 kts 19°
2026-05-08 07:55 49.95667 8.66526 3289 ft 205 kts
2026-05-08 07:56 49.97107 8.66462 3042 ft 212 kts 345°
2026-05-08 07:56 49.98314 8.65388 2541 ft 186 kts 308°
2026-05-08 07:56 49.98718 8.63591 1917 ft 177 kts 276°
2026-05-08 07:56 49.98630 8.61865 1440 ft 143 kts 252°
2026-05-08 07:57 49.98203 8.60766 1092 ft 107 kts 220°
2026-05-08 07:57 49.97530 8.60437 834 ft 105 kts 181°
2026-05-08 07:57 49.96799 8.60589 741 ft 106 kts 170°
2026-05-08 07:57 49.96120 8.60994 668 ft 107 kts 141°
2026-05-08 07:58 49.95971 8.62066 560 ft 111 kts 81°
2026-05-08 07:58 49.96044 8.63241 389 ft 105 kts 86°
2026-05-08 07:58 49.96085 8.64200 388 ft 63 kts 86°
2026-05-08 07:58 49.96109 8.64486 390 ft 17 kts 46°
2026-05-08 07:59 49.96183 8.64515 389 ft 12 kts 274°
2026-05-08 07:59 49.96175 8.64359 387 ft 22 kts 269°
2026-05-08 07:59 49.96169 8.64211 387 ft 7 kts 263°
2026-05-08 07:59 49.96164 8.64141 387 ft 2 kts 266°
2026-05-08 08:00 49.96160 8.64031 385 ft 16 kts 262°
2026-05-08 08:00 49.96147 8.63761 378 ft 26 kts 268°
2026-05-08 08:00 49.96167 8.63724 378 ft 5 kts
2026-05-08 08:00 49.96173 8.63724 378 ft 0 kts 356°